sat.trackr.live / text

‹ back to catalog

STARLINK-35122

NORAD 65510 · 2025-198U

PAYLOAD ACTIVE UNKNOWN

§ Identity

Operator
Country
US
Launch date
2025-09-05
Launch site
AFETR
Launch vehicle
Mass (kg)
RCS (m²)

Purposes: comms

External: N2YO · Heavens-Above · Gunter

§ Orbital elements

Epoch: 2026-09-20T21:52:07.019904Z

Period
93.85 min
Inclination
53.1580°
Eccentricity
0.0003021
Mean motion
15.34401846 rev/d
Perigee alt
460.6 km
Apogee alt
464.8 km
Semi-major
6,840.8 km
B*
6.5081e-4
RAAN
79.6524°
Arg perigee
90.0331°
Mean anomaly
270.1018°
Rev number
5,857

§ Raw data

STARLINK-351221 65510U 25198U   26263.91119236  .00021678  00000+0  65081-3 0  99992 65510  53.1580  79.6524 0003021  90.0331 270.1018 15.34401846 58576

JSON: /api/v1/satellites/65510 · /tle

For live sub-satellite position, see the globe view (requires WebGL).

§ Visibility from observer

Set your observer location to see the next 7 days of passes ≥ 10°. The values pass through the URL so the page stays shareable.

No JS? Fill the form by hand. The geolocation button needs JavaScript.